Bettles, AK

2:05 AM AKDT on July 24, 2017 (GMT -0800)
Bettles

Weather History for PABT - April, 2014

Change the Weather History Date:

Monday, April 21, 2014

  Actual Average Record
Temperature  
Mean Temperature 32 °F -  
Max Temperature 43 °F 36 °F 54 °F (2007)
Min Temperature 21 °F 16 °F -12 °F (1966)
Degree Days  
Heating Degree Days 33    
Moisture  
Dew Point 19 °F    
Average Humidity 52    
Maximum Humidity 78    
Minimum Humidity 29    
Precipitation  
Precipitation 0.00 in - - ()
Snow  
Snow 0.00 in - - ()
Snow Depth 17.00 in    
Sea Level Pressure  
Sea Level Pressure 30.09 in    
Wind  
Wind Speed 3 mph (NE)    
Max Wind Speed 12 mph    
Max Gust Speed 17 mph    
Visibility 10 miles    
Events      
Averages and records for this station are not official NWS values.
T = Trace of Precipitation, MM = Missing Value Source: NWS Daily Summary

Daily Weather History Graph

Daily Weather History Graph

Search for Another Location

Airport or City:

Trip Planner

Search our weather history database for the weather conditions in past years. The results will help you decide how hot, cold, wet, or windy it might be!

Date:

Astronomy

Apr. 21, 2014 Rise Set
Actual Time 5:55 AM AKDT 10:16 PM AKDT
Civil Twilight 4:43 AM AKDT 11:29 PM AKDT
Nautical Twilight 2:37 AM AKDT 1:32 AM AKDT
Astronomical Twilight Sun does not set Sun does not set
Moon 4:33 AM AKDT (4/21) 10:58 AM AKDT (4/21)
Length of Visible Light 18h 45m
Length of Day
16h 21m
Waning Gibbous, 56% of the Moon is Illuminated
Apr 21
Waning Gibbous
Apr 21
Last Quarter
Apr 28
New
May 6
First Quarter
May 14
Full

Hourly Weather History & Observations

Time (AKDT) Temp. Windchill Dew Point Humidity Pressure Visibility Wind Dir Wind Speed Gust Speed Precip Events Conditions
12:53 AM 30.0 °F - 19.0 °F 64% 30.04 in 10.0 mi Calm Calm - N/A   Partly Cloudy
1:53 AM 30.0 °F 25.2 °F 19.0 °F 64% 30.06 in 10.0 mi NNE 4.6 mph - N/A   Partly Cloudy
2:53 AM 28.9 °F 25.2 °F 18.0 °F 64% 30.06 in 10.0 mi NNE 3.5 mph - N/A   Partly Cloudy
3:53 AM 25.0 °F - 18.0 °F 75% 30.08 in 10.0 mi Calm Calm - N/A   Partly Cloudy
4:53 AM 27.0 °F - 17.1 °F 66% 30.08 in 10.0 mi Calm Calm - N/A   Partly Cloudy
5:53 AM 21.9 °F - 16.0 °F 78% 30.09 in 10.0 mi Calm Calm - N/A   Partly Cloudy
6:53 AM 25.0 °F - 16.0 °F 69% 30.10 in 10.0 mi Calm Calm - N/A   Partly Cloudy
7:53 AM 28.0 °F - 17.1 °F 63% 30.10 in 10.0 mi Calm Calm - N/A   Partly Cloudy
8:53 AM 33.1 °F 30.0 °F 17.1 °F 52% 30.10 in 10.0 mi NE 3.5 mph - N/A   Partly Cloudy
9:53 AM 35.1 °F 28.6 °F 18.0 °F 50% 30.10 in 10.0 mi NE 8.1 mph - N/A   Partly Cloudy
10:53 AM 37.0 °F 31.6 °F 19.0 °F 48% 30.10 in 10.0 mi NNE 6.9 mph - N/A   Partly Cloudy
11:53 AM 37.9 °F 35.5 °F 19.0 °F 47% 30.11 in 10.0 mi Variable 3.5 mph - N/A   Partly Cloudy
12:53 PM 39.0 °F - 19.0 °F 45% 30.10 in 10.0 mi Calm Calm - N/A   Partly Cloudy
1:53 PM 39.9 °F 33.9 °F 19.0 °F 43% 30.10 in 10.0 mi NE 9.2 mph - N/A   Partly Cloudy
2:53 PM 39.9 °F 37.8 °F 21.0 °F 47% 30.10 in 10.0 mi Variable 3.5 mph - N/A   Partly Cloudy
3:53 PM 41.0 °F 34.3 °F 19.9 °F 43% 30.09 in 10.0 mi NE 11.5 mph 16.1 mph N/A   Partly Cloudy
4:53 PM 42.1 °F 35.7 °F 19.9 °F 41% 30.08 in 10.0 mi NE 11.5 mph 17.3 mph N/A   Partly Cloudy
5:53 PM 42.1 °F 38.4 °F 21.0 °F 43% 30.08 in 10.0 mi NE 5.8 mph - N/A   Clear
6:53 PM 42.1 °F 39.2 °F 21.0 °F 43% 30.07 in 10.0 mi Variable 4.6 mph - N/A   Clear
7:53 PM 41.0 °F 38.0 °F 21.0 °F 45% 30.08 in 10.0 mi Variable 4.6 mph - N/A   Clear
8:53 PM 39.0 °F 35.7 °F 21.0 °F 49% 30.08 in 10.0 mi East 4.6 mph - N/A   Clear
9:53 PM 37.0 °F 32.4 °F 21.0 °F 52% 30.08 in 10.0 mi NE 5.8 mph - N/A   Clear
10:53 PM 35.1 °F 30.1 °F 19.9 °F 54% 30.09 in 10.0 mi ENE 5.8 mph - N/A   Partly Cloudy
11:53 PM 34.0 °F 28.0 °F 19.9 °F 56% 30.09 in 10.0 mi NNE 6.9 mph - N/A   Partly Cloudy